Weather History for Ellington Field, TX

Change the Weather History Date:

Tuesday, December 10, 2013

  Actual Average Record
Temperature  
Mean Temperature 42 °F -  
Max Temperature 50 °F 63 °F 77 °F (1996)
Min Temperature 33 °F 44 °F 33 °F (2013)
Degree Days  
Heating Degree Days 24    
Moisture  
Dew Point 31 °F    
Average Humidity 69    
Maximum Humidity 100    
Minimum Humidity 46    
Precipitation  
Precipitation 0.00 in - - ()
Sea Level Pressure  
Sea Level Pressure 30.38 in    
Wind  
Wind Speed 13 mph (NNW)    
Max Wind Speed 17 mph    
Max Gust Speed 25 mph    
Visibility 10 miles    
Events      
Averages and records for this station are not official NWS values.
T = Trace of Precipitation, MM = Missing Value Source: NWS Daily Summary

Daily Weather History Graph

Daily Weather History Graph

Search for Another Location

Airport:

Trip Planner

Search our weather history database for the weather conditions in past years. The results will help you decide how hot, cold, wet, or windy it might be!

Date:

Astronomy

Dec. 10, 2013 Rise Set
Actual Time 7:04 AM CST 5:22 PM CST
Civil Twilight 6:38 AM CST 5:48 PM CST
Nautical Twilight 6:09 AM CST 6:18 PM CST
Astronomical Twilight 5:40 AM CST 6:47 PM CST
Moon 1:01 PM CST (12/10) 12:49 AM CST (12/10)
Length of Visible Light 11h 09m
Length of Day
10h 17m
Waxing Gibbous, 62% of the Moon is Illuminated
Dec 10
Waxing Gibbous
Dec 17
Full
Dec 25
Last Quarter
Jan 1
New
Jan 7
First Quarter

Hourly Weather History & Observations

Time (CST) Temp. Windchill Dew Point Humidity Pressure Visibility Wind Dir Wind Speed Gust Speed Precip Events Conditions
12:50 AM 41.0 °F 32.8 °F 41.0 °F 100% 30.31 in 10.0 mi NW 16.1 mph - N/A   Overcast
1:50 AM 41.0 °F 32.8 °F 39.2 °F 93% 30.32 in 10.0 mi NNW 16.1 mph - N/A   Overcast
2:50 AM 39.2 °F 30.8 °F 37.4 °F 93% 30.34 in 10.0 mi NNW 15.0 mph - N/A   Mostly Cloudy
3:50 AM 37.4 °F 28.2 °F 33.8 °F 87% 30.35 in 10.0 mi NNW 16.1 mph - N/A   Overcast
4:50 AM 37.4 °F 28.9 °F 33.8 °F 87% 30.38 in 10.0 mi NNW 13.8 mph - N/A   Mostly Cloudy
5:50 AM 35.6 °F 25.9 °F 32.0 °F 87% 30.40 in 10.0 mi NW 16.1 mph - N/A   Scattered Clouds
6:50 AM 35.6 °F 25.5 °F 32.0 °F 87% 30.40 in 8.0 mi NW 17.3 mph 25.3 mph N/A   Scattered Clouds
7:50 AM 33.8 °F 24.3 °F 28.4 °F 81% 30.44 in 10.0 mi NNW 13.8 mph - N/A   Partly Cloudy
8:50 AM 35.6 °F 27.1 °F 28.4 °F 75% 30.45 in 10.0 mi NNW 12.7 mph - N/A   Partly Cloudy
9:50 AM 37.4 °F 29.3 °F 28.4 °F 70% 30.46 in 10.0 mi North 12.7 mph - N/A   Partly Cloudy
10:50 AM 41.0 °F 34.3 °F 28.4 °F 61% 30.45 in 10.0 mi North 11.5 mph - N/A   Partly Cloudy
11:50 AM 41.0 °F 34.3 °F 28.4 °F 61% 30.42 in 10.0 mi NNW 11.5 mph - N/A   Partly Cloudy
12:50 PM 44.6 °F 39.7 °F 37.4 °F 76% 30.39 in 10.0 mi NNW 9.2 mph - N/A   Partly Cloudy
1:50 PM 48.2 °F - 28.4 °F 46% 30.36 in 10.0 mi North 11.5 mph - N/A   Partly Cloudy
2:50 PM 50.0 °F - 30.2 °F 47% 30.35 in 10.0 mi North 11.5 mph - N/A   Partly Cloudy
3:50 PM 50.0 °F - 30.2 °F 47% 30.34 in 10.0 mi North 11.5 mph - N/A   Partly Cloudy
4:50 PM 50.0 °F - 30.2 °F 47% 30.35 in 10.0 mi North 8.1 mph - N/A   Scattered Clouds
6:50 PM 44.6 °F 43.1 °F 28.4 °F 53% 30.37 in 10.0 mi North 3.5 mph - N/A   Scattered Clouds
7:50 PM 42.8 °F 39.3 °F 26.6 °F 53% 30.37 in 10.0 mi North 5.8 mph - N/A   Scattered Clouds
8:50 PM 42.8 °F 41.1 °F 26.6 °F 53% 30.38 in 10.0 mi North 3.5 mph - N/A   Scattered Clouds
9:50 PM 42.8 °F - 28.4 °F 57% 30.38 in 10.0 mi Variable 2.3 mph - N/A   Scattered Clouds
10:50 PM 41.0 °F - 28.4 °F 61% 30.38 in 10.0 mi Calm Calm - N/A   Scattered Clouds
11:50 PM 41.0 °F - 28.4 °F 61% 30.39 in 10.0 mi Calm Calm - N/A   Scattered Clouds